• In Belarus
  • List of Countries
  • For 7 days
  • Water Temperature
  • Satellite Maps
  • Weather Map
  • Weather Widgets
  • user-avatar
    Login

    Hourly Weather Wiktoria

    Today, 27 March, Wednesday

    Time Temperature Precipitation Wind Pressure Humidity
    00:00 +13°C° 0 mm 2 mps 755 mmHg 64%
    01:00 +12°C° 0 mm 2 mps 755 mmHg 67%
    02:00 +12°C° 0 mm 2 mps 755 mmHg 71%
    03:00 +10°C° 0 mm 2 mps 755 mmHg 74%
    04:00 +10°C° 0 mm 2 mps 755 mmHg 79%
    05:00 +10°C° 0 mm 2 mps 755 mmHg 80%
    06:00 +10°C° 0 mm 2 mps 755 mmHg 81%
    07:00 +10°C° 0 mm 2 mps 755 mmHg 82%
    08:00 +13°C° 0 mm 1 mps 755 mmHg 71%
    09:00 +16°C° 0 mm 1 mps 755 mmHg 60%
    10:00 +19°C° 0 mm 1 mps 755 mmHg 49%
    11:00 +21°C° 0 mm 1 mps 755 mmHg 43%
    12:00 +23°C° 0 mm 1 mps 755 mmHg 38%
    13:00 +23°C° 0 mm 0 mps 754 mmHg 32%
    14:00 +25°C° 0 mm 1 mps 754 mmHg 30%
    15:00 +25°C° 0 mm 1 mps 753 mmHg 29%
    16:00 +25°C° 0 mm 1 mps 753 mmHg 28%
    17:00 +24°C° 0 mm 1 mps 753 mmHg 30%
    18:00 +22°C° 0 mm 1 mps 753 mmHg 33%
    19:00 +20°C° 0 mm 1 mps 753 mmHg 36%
    20:00 +20°C° 0 mm 1 mps 753 mmHg 38%
    21:00 +19°C° 0 mm 1 mps 753 mmHg 39%
    22:00 +18°C° 0 mm 1 mps 753 mmHg 40%
    23:00 +18°C° 0 mm 1 mps 753 mmHg 42%

    Tomorrow, 28 March, Thursday

    Time Temperature Precipitation Wind Pressure Humidity
    00:00 +16°C° 0 mm 1 mps 752 mmHg 43%
    01:00 +16°C° 0 mm 2 mps 752 mmHg 45%
    02:00 +16°C° 0 mm 2 mps 752 mmHg 47%
    03:00 +15°C° 0 mm 2 mps 752 mmHg 50%
    04:00 +14°C° 0 mm 3 mps 752 mmHg 53%
    05:00 +14°C° 0 mm 3 mps 752 mmHg 58%
    06:00 +14°C° 0 mm 3 mps 752 mmHg 63%
    07:00 +16°C° 0 mm 3 mps 752 mmHg 68%
    08:00 +18°C° 0 mm 4 mps 752 mmHg 64%
    09:00 +19°C° 0 mm 4 mps 752 mmHg 60%
    10:00 +21°C° 0 mm 4 mps 752 mmHg 56%
    11:00 +23°C° 0 mm 4 mps 751 mmHg 51%
    12:00 +26°C° 0 mm 3 mps 750 mmHg 46%
    13:00 +27°C° 0 mm 3 mps 750 mmHg 41%
    14:00 +28°C° 0 mm 3 mps 749 mmHg 37%
    15:00 +29°C° 0 mm 3 mps 748 mmHg 34%
    16:00 +29°C° 0 mm 3 mps 747 mmHg 31%
    17:00 +27°C° 0 mm 2 mps 747 mmHg 34%
    18:00 +25°C° 0 mm 1 mps 747 mmHg 38%
    19:00 +23°C° 0 mm 1 mps 747 mmHg 41%
    20:00 +23°C° 0 mm 1 mps 747 mmHg 42%
    21:00 +22°C° 0 mm 1 mps 747 mmHg 44%
    22:00 +19°C° 0 mm 0 mps 747 mmHg 45%
    23:00 +20°C° 0 mm 1 mps 747 mmHg 45%

    Day after tomorrow, 29 March, Friday

    Time Temperature Precipitation Wind Pressure Humidity
    00:00 +20°C° 0 mm 1 mps 746 mmHg 46%
    01:00 +20°C° 0 mm 1 mps 746 mmHg 46%
    02:00 +18°C° 0 mm 2 mps 746 mmHg 45%
    03:00 +18°C° 0 mm 2 mps 745 mmHg 43%
    04:00 +18°C° 0 mm 2 mps 745 mmHg 42%
    05:00 +18°C° 0 mm 2 mps 745 mmHg 41%
    06:00 +17°C° 0 mm 2 mps 745 mmHg 40%
    07:00 +17°C° 0 mm 2 mps 745 mmHg 40%
    08:00 +20°C° 0 mm 3 mps 745 mmHg 36%
    09:00 +23°C° 0 mm 4 mps 744 mmHg 32%
    10:00 +27°C° 0 mm 5 mps 744 mmHg 28%
    11:00 +28°C° 0 mm 6 mps 744 mmHg 24%
    12:00 +30°C° 0 mm 7 mps 743 mmHg 20%
    13:00 +32°C° 0 mm 8 mps 742 mmHg 16%
    14:00 +29°C° 0 mm 7 mps 742 mmHg 22%
    15:00 +27°C° 0 mm 7 mps 742 mmHg 27%
    16:00 +26°C° 0 mm 6 mps 742 mmHg 33%
    17:00 +22°C° 0 mm 7 mps 742 mmHg 44%
    18:00 +18°C° 0 mm 8 mps 743 mmHg 54%
    19:00 +15°C° 0 mm 9 mps 743 mmHg 65%
    20:00 +13°C° 0 mm 8 mps 744 mmHg 65%
    21:00 +14°C° 0 mm 7 mps 745 mmHg 64%
    22:00 +13°C° 0 mm 6 mps 745 mmHg 64%
    23:00 +11°C° 0 mm 6 mps 746 mmHg 64%

    30 March, Saturday

    Time Temperature Precipitation Wind Pressure Humidity
    00:00 +10°C° 0 mm 5 mps 746 mmHg 63%
    01:00 +9°C° 0 mm 5 mps 746 mmHg 63%
    02:00 +8°C° 0 mm 4 mps 746 mmHg 65%
    03:00 +7°C° 0 mm 4 mps 746 mmHg 67%
    04:00 +7°C° 0 mm 3 mps 746 mmHg 69%
    05:00 +7°C° 0 mm 3 mps 746 mmHg 69%
    06:00 +7°C° 0 mm 3 mps 746 mmHg 70%
    07:00 +7°C° 0 mm 3 mps 746 mmHg 71%
    08:00 +8°C° 0 mm 4 mps 746 mmHg 66%
    09:00 +9°C° 0 mm 5 mps 747 mmHg 61%
    10:00 +12°C° 0 mm 5 mps 747 mmHg 55%
    11:00 +10°C° 1.3 mm 6 mps 747 mmHg 63%
    12:00 +10°C° 1.3 mm 6 mps 747 mmHg 71%
    13:00 +9°C° 1.3 mm 7 mps 747 mmHg 79%
    14:00 +11°C° 0.3 mm 7 mps 747 mmHg 70%
    15:00 +12°C° 0.3 mm 8 mps 747 mmHg 61%
    16:00 +15°C° 0.3 mm 9 mps 747 mmHg 53%
    17:00 +14°C° 0 mm 7 mps 748 mmHg 57%
    18:00 +11°C° 0 mm 6 mps 749 mmHg 61%
    19:00 +11°C° 0 mm 4 mps 750 mmHg 65%
    20:00 +10°C° 0 mm 4 mps 750 mmHg 64%
    21:00 +10°C° 0 mm 3 mps 750 mmHg 64%
    22:00 +9°C° 0 mm 3 mps 751 mmHg 64%
    23:00 +9°C° 0 mm 3 mps 751 mmHg 67%

    31 March, Sunday

    Time Temperature Precipitation Wind Pressure Humidity
    00:00 +8°C° 0 mm 4 mps 751 mmHg 71%
    01:00 +8°C° 0 mm 4 mps 751 mmHg 74%
    02:00 +8°C° 0 mm 4 mps 751 mmHg 76%
    03:00 +8°C° 0 mm 4 mps 751 mmHg 78%
    04:00 +8°C° 0 mm 4 mps 751 mmHg 81%
    05:00 +8°C° 0 mm 4 mps 751 mmHg 80%
    06:00 +10°C° 0 mm 4 mps 752 mmHg 79%
    07:00 +10°C° 0 mm 4 mps 752 mmHg 78%
    08:00 +12°C° 0 mm 4 mps 753 mmHg 73%
    09:00 +13°C° 0 mm 4 mps 754 mmHg 69%
    10:00 +14°C° 0 mm 4 mps 754 mmHg 65%
    11:00 +15°C° 0 mm 4 mps 754 mmHg 62%
    12:00 +15°C° 0 mm 4 mps 754 mmHg 58%
    13:00 +17°C° 0 mm 3 mps 754 mmHg 55%
    14:00 +17°C° 0 mm 3 mps 754 mmHg 54%
    15:00 +17°C° 0 mm 3 mps 754 mmHg 52%
    16:00 +17°C° 0 mm 3 mps 754 mmHg 51%
    17:00 +17°C° 0 mm 2 mps 755 mmHg 53%
    18:00 +16°C° 0 mm 2 mps 755 mmHg 55%
    19:00 +16°C° 0 mm 2 mps 755 mmHg 56%
    20:00 +15°C° 0 mm 2 mps 756 mmHg 59%
    21:00 +15°C° 0 mm 2 mps 756 mmHg 61%
    22:00 +14°C° 0 mm 2 mps 757 mmHg 64%
    23:00 +13°C° 0 mm 2 mps 756 mmHg 70%

    1 April, Monday

    Time Temperature Precipitation Wind Pressure Humidity
    00:00 +12°C° 0 mm 2 mps 756 mmHg 76%
    01:00 +10°C° 0 mm 2 mps 756 mmHg 81%
    02:00 +10°C° 0 mm 2 mps 756 mmHg 83%
    03:00 +10°C° 0 mm 2 mps 756 mmHg 85%
    04:00 +9°C° 0 mm 2 mps 756 mmHg 87%
    05:00 +9°C° 0 mm 2 mps 757 mmHg 88%
    06:00 +9°C° 0 mm 2 mps 757 mmHg 88%
    07:00 +10°C° 0 mm 1 mps 758 mmHg 89%
    08:00 +12°C° 0 mm 2 mps 758 mmHg 79%
    09:00 +15°C° 0 mm 2 mps 758 mmHg 68%
    10:00 +17°C° 0 mm 2 mps 758 mmHg 58%
    11:00 +18°C° 0 mm 2 mps 757 mmHg 53%
    12:00 +20°C° 0 mm 2 mps 757 mmHg 48%
    13:00 +21°C° 0 mm 2 mps 756 mmHg 43%
    14:00 +21°C° 0 mm 2 mps 756 mmHg 42%
    15:00 +23°C° 0 mm 2 mps 756 mmHg 40%
    16:00 +23°C° 0 mm 2 mps 756 mmHg 39%
    17:00 +22°C° 0 mm 1 mps 756 mmHg 43%
    18:00 +20°C° 0 mm 1 mps 756 mmHg 48%
    19:00 +19°C° 0 mm 1 mps 757 mmHg 52%
    20:00 +18°C° 0 mm 1 mps 757 mmHg 56%
    21:00 +16°C° 0 mm 2 mps 757 mmHg 59%
    22:00 +15°C° 0 mm 2 mps 757 mmHg 63%
    23:00 +15°C° 0 mm 2 mps 757 mmHg 66%
    Show more